GFSNIL_sfc_temp_159.txt.gz
Temp
52 51 52 51 51 51 51 51 51 50 49 49 48 48 48 47 48 48 48 47 47 47
51 50 51 51 51 51 51 50 50 49 48 48 47 47 47 47 46 47 47 46 45 45
50 50 50 50 49 49 50 49 49 48 47 47 46 46 46 45 45 45 45 45 44 43
50 49 49 48 49 49 49 49 48 48 47 46 46 46 45 45 45 44 44 44 43 42
48 48 48 48 48 48 48 48 48 47 46 46 46 46 44 44 45 43 43 43 42 42
47 46 47 47 47 47 47 47 47 46 45 45 45 44 44 44 44 43 43 43 42 42
46 45 46 46 46 46 46 45 45 45 45 45 45 45 45 44 44 43 43 42 42 41
45 45 45 45 46 46 45 45 44 44 44 44 44 45 44 43 43 43 42 42 42 41
44 44 44 44 44 45 45 45 44 43 42 42 43 45 46 44 43 42 41 41 41 41
43 42 42 42 42 43 43 43 43 42 42 42 43 44 46 47 42 41 41 40 41 40
41 41 41 40 41 41 41 41 41 41 42 41 42 44 45 46 46 41 40 41 40 40
40 39 39 38 39 39 39 39 39 40 39 39 40 42 44 45 45 40 39 39 40 40
39 38 38 38 37 38 37 37 37 37 38 38 39 40 42 44 43 39 39 38 38 41
39 37 37 37 36 36 35 35 35 35 36 36 37 38 40 42 41 40 38 36 36 36

GFSNIL_sfc_temp_162.txt.gz
Temp
62 62 62 62 62 62 62 62 62 60 59 59 58 56 56 55 55 55 54 54 54 53
62 61 61 61 62 61 62 61 61 59 59 58 57 56 56 55 54 54 54 53 52 52
61 61 60 60 59 60 60 60 59 59 58 57 56 56 55 54 54 52 53 53 52 51
59 59 59 59 59 59 59 59 58 58 57 56 56 55 54 54 53 51 52 52 51 50
58 57 57 58 58 58 57 58 57 57 56 56 55 55 54 52 53 51 51 51 50 49
56 56 56 56 56 56 56 57 57 55 55 55 55 54 54 53 53 52 51 51 50 49
55 55 55 55 55 55 55 55 56 55 55 54 54 54 53 53 52 52 52 51 50 50
53 54 54 53 54 54 54 54 54 53 53 53 53 52 53 52 51 51 51 51 50 49
52 52 51 51 51 52 52 53 53 52 51 50 51 49 47 47 51 51 50 49 50 49
50 50 50 50 50 50 50 51 51 51 51 50 51 48 46 46 48 49 49 49 49 48
49 48 49 49 49 49 49 49 48 48 49 48 49 46 45 45 48 49 49 48 47 47
48 47 48 47 47 47 47 47 47 47 46 46 47 45 43 44 47 48 49 48 47 44
47 46 46 46 46 46 46 45 45 45 46 45 45 45 42 43 47 46 46 47 45 42
47 46 46 45 46 45 44 44 44 44 47 47 46 45 42 42 44 46 45 44 42 42

GFSNIL_sfc_temp_165.txt.gz
Temp
65 64 64 64 64 63 63 64 65 64 62 61 61 59 57 56 55 56 54 54 54 54
64 63 62 62 63 62 63 63 63 63 61 61 60 58 57 56 55 55 54 53 53 52
62 63 62 61 60 61 62 62 61 61 60 60 59 58 56 55 55 54 53 53 52 52
60 60 60 60 60 60 60 60 59 59 59 59 58 58 56 55 55 53 52 53 52 51
60 60 59 59 59 60 59 60 59 58 58 58 58 57 56 54 54 53 51 51 51 50
59 58 58 58 58 58 58 58 59 58 57 56 57 56 56 55 54 53 52 52 51 50
57 57 56 56 57 57 57 56 57 57 57 56 56 55 55 55 54 53 53 52 51 51
56 56 55 55 55 55 55 55 55 54 55 55 55 55 53 53 52 51 51 52 52 50
54 54 53 53 52 53 53 54 54 53 52 51 53 51 49 48 48 50 50 49 51 51
53 52 52 52 52 51 51 52 51 52 52 51 52 49 48 47 46 47 48 49 49 49
52 51 51 51 50 51 51 50 50 50 50 49 49 48 46 45 45 46 48 48 48 47
52 50 50 49 49 49 49 48 48 49 47 47 48 47 45 44 45 46 47 49 50 47
50 49 48 48 47 48 48 47 47 47 47 47 46 47 45 44 44 44 46 48 48 45
49 48 48 48 48 47 46 46 45 46 48 49 48 47 45 43 42 43 44 44 44 43

GFSNIL_sfc_temp_168.txt.gz
Temp
55 53 52 52 52 51 51 52 54 54 52 52 53 51 50 47 46 46 45 45 45 46
54 53 51 52 51 50 52 55 54 53 53 52 52 51 49 46 46 46 45 44 44 44
53 52 51 50 50 50 51 52 52 52 52 51 51 50 48 46 47 46 45 45 44 44
51 51 51 50 50 50 50 51 51 51 51 51 50 50 48 47 46 46 45 45 44 44
51 50 49 49 50 50 49 50 50 51 50 50 50 49 48 46 48 45 44 44 43 43
49 48 48 48 49 49 49 48 49 50 49 49 49 48 48 48 47 46 45 44 43 43
47 47 47 47 47 48 48 47 47 48 48 48 49 49 48 48 46 45 45 45 44 43
48 48 47 46 46 46 46 47 47 47 47 47 47 49 45 45 43 42 43 44 45 44
47 47 46 45 45 45 45 45 45 44 44 43 47 50 50 46 41 41 42 41 43 44
47 46 45 45 45 44 43 43 42 42 43 42 43 49 48 47 41 40 39 40 42 43
46 45 45 44 43 42 42 42 41 41 42 41 44 48 48 46 40 39 39 41 41 40
45 44 43 42 41 42 41 40 40 42 40 39 40 46 47 44 38 38 39 41 41 42
44 43 41 41 40 41 40 41 40 40 40 42 40 44 47 44 38 35 38 39 41 46
44 42 42 41 39 39 38 38 37 38 39 39 40 40 46 45 38 37 37 37 37 42

GFSNIL_sfc_temp_171.txt.gz
Temp
53 50 50 50 49 48 48 48 50 51 50 49 50 49 48 46 45 44 43 43 43 44
52 51 49 49 48 47 48 52 51 50 50 50 49 49 47 45 45 44 43 42 42 42
50 50 49 47 47 47 48 49 48 48 49 49 49 48 47 45 45 44 43 43 42 42
48 49 48 47 47 47 47 48 48 48 48 48 48 48 46 45 45 44 43 43 42 42
48 48 46 46 47 47 46 47 47 47 47 47 48 47 46 45 46 44 42 42 41 41
46 45 45 45 46 46 45 45 45 46 46 46 46 46 45 45 44 43 43 42 41 41
45 45 45 45 45 45 45 44 44 44 45 45 45 45 45 45 43 42 42 42 42 41
46 45 45 44 44 44 43 44 43 43 43 43 44 46 44 43 41 40 39 40 41 42
45 45 44 43 43 42 42 42 42 42 41 41 45 48 49 46 40 40 39 38 39 40
45 44 43 43 42 41 40 40 40 40 40 40 40 47 48 48 41 39 37 37 37 39
44 43 43 42 41 40 40 40 39 40 40 40 42 46 47 47 40 37 37 37 37 37
43 42 41 40 39 39 39 39 39 40 39 39 40 44 46 45 38 37 36 37 37 37
43 42 40 40 39 40 39 40 40 40 39 41 40 43 45 45 37 34 35 35 37 42
42 41 40 39 38 38 37 36 35 36 38 37 38 38 45 46 38 35 34 34 35 37